Weather History for Sacramento, CA

Change the Weather History Date:

Wednesday, November 21, 2012

  Actual Average Record
Temperature  
Mean Temperature 60 °F -  
Max Temperature 64 °F 61 °F 71 °F (2002)
Min Temperature 55 °F 41 °F 26 °F (1941)
Degree Days  
Heating Degree Days 5    
Cooling Degree Days 0    
Growing Degree Days 6 (Base 50)    
Moisture  
Dew Point 53 °F    
Average Humidity 89    
Maximum Humidity 94    
Minimum Humidity 70    
Precipitation  
Precipitation 0.28 in 0.08 in 1.56 in (1977)
Month to date precipitation 1.59 1.33  
Year to date precipitation 12.62 14.52  
Since 1 July precipitation 2.76 2.62  
Sea Level Pressure  
Sea Level Pressure 30.12 in    
Wind  
Wind Speed 5 mph (SE)    
Max Wind Speed 13 mph    
Max Gust Speed 17 mph    
Visibility 4 miles    
Events Fog , Rain    
T = Trace of Precipitation, MM = Missing Value Source: NWS Daily Summary

Daily Weather History Graph

Daily Weather History Graph

Search for Another Location

Airport:

Trip Planner

Search our weather history database for the weather conditions in past years. The results will help you decide how hot, cold, wet, or windy it might be!

Date:

Astronomy

Nov. 21, 2012 Rise Set
Actual Time 6:54 AM PST 4:48 PM PST
Civil Twilight 6:26 AM PST 5:17 PM PST
Nautical Twilight 5:53 AM PST 5:49 PM PST
Astronomical Twilight 5:22 AM PST 6:21 PM PST
Moon 1:03 PM PST (11/21) 12:23 AM PST (11/21)
Length of Visible Light 10h 51m
Length of Day
9h 53m
Waxing Gibbous, 63% of the Moon is Illuminated
Nov 21
Waxing Gibbous
Nov 28
Full
Dec 6
Last Quarter
Dec 13
New
Dec 19
First Quarter

Hourly Weather History & Observations

Time (PST) Temp. Dew Point Humidity Pressure Visibility Wind Dir Wind Speed Gust Speed Precip Events Conditions
12:40 AM 57.2 °F 55.4 °F 94% 30.08 in 6.0 mi Calm Calm - 0.01 in   Overcast
12:53 AM 57.0 °F 55.0 °F 93% 30.07 in 2.5 mi ESE 4.6 mph - 0.01 in Rain Light Rain
1:02 AM 57.2 °F 55.4 °F 94% 30.07 in 2.5 mi East 4.6 mph - 0.02 in Rain Light Rain
1:17 AM 57.2 °F 55.4 °F 94% 30.07 in 4.0 mi ESE 4.6 mph - 0.03 in Rain Light Rain
1:53 AM 57.0 °F 54.0 °F 89% 30.07 in 4.0 mi SE 5.8 mph - 0.04 in Rain Light Rain
2:34 AM 57.2 °F 55.4 °F 94% 30.07 in 3.0 mi SE 5.8 mph - 0.03 in Rain Light Rain
2:44 AM 57.2 °F 55.4 °F 94% 30.06 in 4.0 mi SE 5.8 mph - 0.03 in Rain Light Rain
2:53 AM 57.0 °F 55.0 °F 93% 30.06 in 4.0 mi ESE 8.1 mph - 0.03 in Rain Light Rain
3:02 AM 57.2 °F 55.4 °F 94% 30.06 in 6.0 mi SE 6.9 mph - 0.00 in Rain Light Rain
3:35 AM 57.2 °F 53.6 °F 88% 30.06 in 4.0 mi SE 4.6 mph - 0.01 in Rain Light Rain
3:53 AM 55.9 °F 54.0 °F 93% 30.06 in 3.0 mi ESE 5.8 mph - 0.02 in Rain Light Rain
4:07 AM 55.4 °F 53.6 °F 94% 30.05 in 4.0 mi East 5.8 mph - 0.01 in Rain Light Rain
4:16 AM 55.4 °F 53.6 °F 94% 30.05 in 4.0 mi ESE 6.9 mph - 0.02 in Rain Light Rain
4:34 AM 55.4 °F 53.6 °F 94% 30.06 in 3.0 mi ESE 5.8 mph - 0.02 in Rain Light Rain
4:38 AM 55.4 °F 53.6 °F 94% 30.06 in 2.0 mi SE 5.8 mph - 0.04 in Rain Heavy Rain
4:45 AM 55.4 °F 53.6 °F 94% 30.07 in 2.0 mi SE 6.9 mph - 0.06 in Rain Light Rain
4:53 AM 55.9 °F 54.0 °F 93% 30.07 in 3.0 mi ESE 5.8 mph - 0.06 in Rain Rain
5:00 AM 55.4 °F 53.6 °F 94% 30.07 in 2.5 mi ESE 4.6 mph - 0.02 in Rain Light Rain
5:08 AM 55.4 °F 53.6 °F 94% 30.07 in 4.0 mi ESE 3.5 mph - 0.03 in Rain Light Rain
5:53 AM 55.9 °F 53.1 °F 90% 30.09 in 3.0 mi Variable 4.6 mph - 0.04 in Rain Light Rain
6:18 AM 55.4 °F 53.6 °F 94% 30.10 in 2.0 mi SSE 6.9 mph - 0.01 in Rain Light Rain
6:27 AM 55.4 °F 53.6 °F 94% 30.10 in 3.0 mi SSE 9.2 mph - 0.02 in Rain Light Rain
6:51 AM 55.4 °F 51.8 °F 88% 30.10 in 2.0 mi SSE 9.2 mph 17.3 mph 0.04 in Rain Light Rain
6:53 AM 55.0 °F 52.0 °F 89% 30.10 in 2.0 mi SE 9.2 mph 17.3 mph 0.04 in Rain Light Rain
7:03 AM 55.4 °F 51.8 °F 88% 30.11 in 3.0 mi SE 9.2 mph 17.3 mph 0.00 in Rain Light Rain
7:15 AM 55.4 °F 53.6 °F 94% 30.11 in 3.0 mi SSE 8.1 mph - 0.00 in   Overcast
7:29 AM 55.4 °F 53.6 °F 94% 30.13 in 1.8 mi SSE 6.9 mph - 0.01 in Rain Light Rain
7:42 AM 55.4 °F 53.6 °F 94% 30.12 in 2.0 mi SE 8.1 mph - 0.01 in Rain Light Rain
7:53 AM 55.0 °F 53.1 °F 93% 30.13 in 2.0 mi SSE 4.6 mph - 0.03 in Rain Light Rain
8:00 AM 55.4 °F 53.6 °F 94% 30.13 in 3.0 mi SE 6.9 mph - 0.00 in Rain Light Rain
8:53 AM 55.0 °F 53.1 °F 93% 30.15 in 3.0 mi SE 5.8 mph - 0.00 in Rain Light Rain
9:03 AM 55.4 °F 53.6 °F 94% 30.15 in 2.0 mi SE 4.6 mph - 0.00 in Rain Light Rain
9:48 AM 55.4 °F 53.6 °F 94% 30.17 in 2.0 mi SE 6.9 mph - 0.01 in Rain Light Rain
9:53 AM 55.9 °F 53.1 °F 90% 30.17 in 2.0 mi SE 6.9 mph - 0.01 in Rain Light Rain
10:00 AM 55.4 °F 53.6 °F 94% 30.17 in 5.0 mi SSE 5.8 mph - 0.00 in   Overcast
10:30 AM 57.2 °F 53.6 °F 88% 30.18 in 2.5 mi SSE 8.1 mph - 0.00 in   Overcast
10:53 AM 57.9 °F 54.0 °F 87% 30.17 in 2.5 mi SSE 9.2 mph - 0.00 in   Overcast
11:00 AM 57.2 °F 53.6 °F 88% 30.17 in 6.0 mi SSE 9.2 mph - N/A   Overcast
11:24 AM 60.8 °F 55.4 °F 82% 30.17 in 6.0 mi SSE 8.1 mph - N/A   Scattered Clouds
11:41 AM 59.0 °F 55.4 °F 88% 30.17 in 7.0 mi SSW 6.9 mph - N/A   Mostly Cloudy
11:53 AM 60.1 °F 55.0 °F 83% 30.16 in 8.0 mi SSW 5.8 mph - N/A   Mostly Cloudy
12:53 PM 62.1 °F 55.0 °F 78% 30.15 in 10.0 mi SE 6.9 mph - N/A   Mostly Cloudy
12:57 PM 62.6 °F 55.4 °F 77% 30.15 in 10.0 mi SE 6.9 mph - N/A   Scattered Clouds
1:30 PM 62.6 °F 55.4 °F 77% 30.15 in 10.0 mi SE 5.8 mph - N/A   Mostly Cloudy
1:53 PM 63.0 °F 54.0 °F 72% 30.14 in 10.0 mi ESE 4.6 mph - N/A   Mostly Cloudy
2:13 PM 62.6 °F 53.6 °F 72% 30.14 in 10.0 mi ESE 4.6 mph - N/A   Partly Cloudy
2:53 PM 63.0 °F 53.1 °F 70% 30.14 in 10.0 mi SE 6.9 mph - N/A   Mostly Cloudy
3:53 PM 62.1 °F 53.1 °F 72% 30.14 in 10.0 mi ESE 5.8 mph - N/A   Clear
4:53 PM 61.0 °F 53.1 °F 75% 30.14 in 10.0 mi Calm Calm - N/A   Scattered Clouds
5:53 PM 59.0 °F 52.0 °F 78% 30.15 in 10.0 mi SE 4.6 mph - N/A   Partly Cloudy
6:53 PM 55.9 °F 51.1 °F 84% 30.16 in 10.0 mi Calm Calm - N/A   Clear
7:53 PM 53.1 °F 50.0 °F 89% 30.17 in 9.0 mi Calm Calm - N/A   Clear
8:53 PM 53.1 °F 51.1 °F 93% 30.18 in 6.0 mi Calm Calm - N/A   Clear
9:53 PM 51.1 °F 48.0 °F 89% 30.19 in 2.0 mi Calm Calm - N/A   Clear
10:02 PM 51.8 °F 48.2 °F 88% 30.19 in 1.2 mi Calm Calm - N/A   Clear
10:22 PM 48.2 °F 46.4 °F 93% 30.19 in 0.2 mi Calm Calm - N/A Fog Fog
10:44 PM 48.2 °F 46.4 °F 93% 30.19 in 0.5 mi Calm Calm - N/A Fog Fog
10:53 PM 48.0 °F 46.0 °F 93% 30.19 in 0.5 mi Calm Calm - N/A Fog Fog
11:07 PM 48.2 °F 46.4 °F 93% 30.19 in 2.0 mi West 3.5 mph - N/A   Partly Cloudy
11:15 PM 48.2 °F 46.4 °F 93% 30.19 in 4.0 mi WNW 3.5 mph - N/A   Partly Cloudy
11:53 PM 50.0 °F 46.9 °F 89% 30.19 in 6.0 mi Calm Calm - N/A   Clear